Location: Kalispell
(48.1967°N, 114.3128°W)
Time: 06:39:21
(UTC-06:00)

Amateur Radio Satellites - All Passes

Search period start: 29 June 2016 06:09
Search period end: 30 June 2016 06:09
Location: Kalispell, 48.1967°N, 114.3128°W

Satellite Date Start Highest point End Downlink Frequencies (MHz)
Time Altitude Azimuth
STARS 29 Jun 06:16:47 06:19:30 16° 270° (W) 06:22:14 437.465
PCSat 29 Jun 06:23:59 06:26:46 14° 339° (NNW) 06:29:32 145.827
AO-7 29 Jun 06:24:23 06:32:42 68° 295° (WNW) 06:40:58 29.400- 29.500
AIST 2 29 Jun 06:28:06 06:32:13 86° 310° (NW) 06:36:24 435.215
AIST 1 29 Jun 06:34:51 06:36:28 12° 278° (W) 06:38:05
Cosmos 2499 29 Jun 06:38:02 06:46:53 68° 77° (ENE) 06:55:13 435.465 / 435.565
NOAA 15 29 Jun 06:39:28 06:43:07 19° 90° (E) 06:46:46 137.62
ITAMSAT 1 29 Jun 06:48:50 06:51:01 13° 308° (NW) 06:53:11 435.822/435.867
HORYU 2 29 Jun 06:56:49 07:01:20 75° 287° (WNW) 07:05:49 437.375
STRAND 1 29 Jun 07:06:51 07:11:31 36° 65° (ENE) 07:16:13 437.568
GONETS M04 29 Jun 07:08:57 07:17:32 65° 267° (W) 07:26:08
CUBESAT XI-V 29 Jun 07:09:07 07:12:55 24° 267° (W) 07:16:45 437.345
AO-85 29 Jun 07:13:37 07:18:08 55° 238° (WSW) 07:22:14 145.980
NOAA 18 29 Jun 07:18:02 07:22:59 32° 96° (E) 07:27:54 137.9125
Cubesat XI-IV 29 Jun 07:18:17 07:23:01 30° 95° (E) 07:27:42 437.490
CUSAT 1 29 Jun 07:20:43 07:26:51 28° 89° (E) 07:32:09 437.405
BRITE-PL 29 Jun 07:33:00 07:37:04 51° 100° (E) 07:41:08 437.365/2234.400
PHONESAT 2.4 29 Jun 07:44:00 07:44:34 10° 159° (SSE) 07:45:08 2401.200-2431.200
LilacSat-2 29 Jun 07:47:26 07:51:16 53° 100° (E) 07:55:04 437.200
DANDE 29 Jun 07:48:58 07:55:36 27° 85° (E) 08:01:42 436.750
CUTE-I 29 Jun 07:52:06 07:57:25 57° 101° (E) 08:02:43 437.470
GOMX 1 29 Jun 08:02:55 08:07:00 48° 100° (E) 08:11:12 467.674
AIST 2 29 Jun 08:08:25 08:11:19 18° 329° (NNW) 08:14:14 435.215
PCSat 29 Jun 08:11:47 08:12:44 10° 6° (N) 08:13:41 145.827
CINEMA 3 29 Jun 08:14:45 08:16:00 11° 87° (E) 08:17:15 145.822/145.860
PRISM 29 Jun 08:16:02 08:19:25 25° 64° (ENE) 08:22:47 437.425
NOAA 15 29 Jun 08:18:11 08:23:25 68° 289° (WNW) 08:28:36 137.62
AO-7 29 Jun 08:18:19 08:24:04 21° 318° (NW) 08:29:48 29.400- 29.500
Cosmos 2499 29 Jun 08:31:56 08:39:21 32° 279° (W) 08:46:27 435.465 / 435.565
HORYU 2 29 Jun 08:35:43 08:37:07 11° 305° (NW) 08:38:30 437.375
STRAND 1 29 Jun 08:46:01 08:50:43 35° 264° (W) 08:55:26 437.568
ISS 29 Jun 08:51:42 08:53:07 12° 135° (SE) 08:54:32 145.825
CANX-2 29 Jun 08:54:40 08:58:15 25° 93° (E) 09:01:46 2200.000
COMPASS 1 29 Jun 08:55:11 08:56:37 11° 87° (E) 08:58:02 437.405
HO-68 29 Jun 08:57:06 09:03:28 32° 94° (E) 09:09:47 435.675
Cubesat XI-IV 29 Jun 08:58:08 09:03:14 45° 293° (WNW) 09:08:19 437.490
NOAA 18 29 Jun 08:58:32 09:03:47 44° 294° (WNW) 09:09:00 137.9125
DOVE 4 29 Jun 08:59:19 09:03:39 86° 104° (ESE) 09:08:10 437.250
CUSAT 1 29 Jun 09:01:07 09:08:40 66° 284° (WNW) 09:14:51 437.405
GONETS M04 29 Jun 09:08:31 09:12:32 14° 290° (WNW) 09:16:33
BRITE-PL 29 Jun 09:12:27 09:15:15 18° 298° (WNW) 09:18:02 437.365/2234.400
CUTE 1.7 + AOD 2 29 Jun 09:14:17 09:18:13 34° 96° (E) 09:22:06 437.475
SEEDS 29 Jun 09:17:03 09:20:41 27° 94° (E) 09:24:16 437.485
PHONESAT 2.4 29 Jun 09:18:12 09:20:29 19° 175° (S) 09:22:45 2401.200-2431.200
UNISAT 6 29 Jun 09:21:24 09:22:19 11° 55° (NE) 09:23:15 437.425
LilacSat-2 29 Jun 09:22:47 09:25:11 16° 298° (WNW) 09:27:36 437.200
DANDE 29 Jun 09:29:27 09:37:54 80° 282° (WNW) 09:45:25 436.750
CUTE-I 29 Jun 09:32:48 09:37:08 25° 300° (WNW) 09:41:26 437.470
CUBEBUG 2 29 Jun 09:41:29 09:45:23 26° 94° (E) 09:49:21 437.445
GOMX 1 29 Jun 09:41:51 09:44:51 19° 297° (WNW) 09:47:54 467.674
CINEMA 3 29 Jun 09:49:13 09:53:45 87° 104° (ESE) 09:58:30 145.822/145.860
PRISM 29 Jun 09:50:43 09:54:34 36° 262° (W) 09:58:26 437.425
AAUSAT CUBESAT 2 29 Jun 09:53:45 09:57:40 36° 97° (E) 10:01:30 437.432
PCSat 29 Jun 09:54:19 09:58:22 21° 32° (NNE) 10:02:25 145.827
ANTELSAT 29 Jun 09:58:17 10:01:39 22° 63° (ENE) 10:05:06 437.575/2403.000
NOAA 15 29 Jun 10:00:04 10:02:15 13° 308° (NW) 10:04:26 137.62
BEESAT 3 29 Jun 10:01:37 10:04:12 16° 31° (NNE) 10:06:47 437.485
ZACube-1 29 Jun 10:04:36 10:08:07 22° 92° (E) 10:11:39 437.345
M-CUBED/EXP-1 PRIME 29 Jun 10:11:41 10:14:50 23° 101° (E) 10:18:09 437.505
Oscar 11 29 Jun 10:12:53 10:16:33 26° 94° (E) 10:20:11 145.826/435.025
FUNcube-1 29 Jun 10:21:25 10:25:24 29° 95° (E) 10:29:23 145.935
ISS 29 Jun 10:25:48 10:29:02 64° 153° (SSE) 10:32:17 145.825
UWE-3 29 Jun 10:26:51 10:31:19 50° 99° (E) 10:35:51 435.000/436.395/437.385
COMPASS 1 29 Jun 10:28:31 10:32:44 78° 286° (WNW) 10:36:54 437.405
CANX-2 29 Jun 10:30:14 10:34:12 37° 291° (WNW) 10:38:07 2200.000
Cosmos 2491 29 Jun 10:34:52 10:40:45 19° 53° (NE) 10:46:37 435.465 / 435.565
DOVE 4 29 Jun 10:38:56 10:40:49 13° 301° (WNW) 10:42:42 437.250
BEESAT 2 29 Jun 10:40:55 10:43:56 20° 34° (NE) 10:46:56 435.950
HO-68 29 Jun 10:44:30 10:51:34 60° 294° (WNW) 10:58:36 435.675
CUSAT 1 29 Jun 10:47:50 10:51:36 15° 301° (WNW) 10:55:02 437.405
TIGRISAT 29 Jun 10:48:31 10:52:46 62° 73° (ENE) 10:57:10 435.000
CUTE 1.7 + AOD 2 29 Jun 10:50:19 10:53:57 27° 294° (WNW) 10:57:34 437.475
SEEDS 29 Jun 10:52:35 10:56:26 33° 292° (WNW) 11:00:14 437.485
UNISAT 6 29 Jun 10:53:53 10:58:12 74° 75° (ENE) 11:02:39 437.425
PHONESAT 2.4 29 Jun 10:54:29 10:56:29 16° 192° (SSW) 10:58:30 2401.200-2431.200
NANOSAT C BR1 29 Jun 10:57:30 11:00:06 16° 60° (ENE) 11:02:42 145.865
QB50P1 29 Jun 11:00:41 11:03:32 18° 61° (ENE) 11:06:25 145.935-145.965
POPSAT HIP 1 29 Jun 11:03:52 11:06:49 19° 62° (ENE) 11:09:48 437.405
AUBIESAT-1 29 Jun 11:05:30 11:09:23 70° 109° (ESE) 11:13:33 437.475
HUMSAT D 29 Jun 11:10:23 11:13:55 24° 93° (E) 11:17:24 437.325/437.525
DANDE 29 Jun 11:15:40 11:21:42 22° 301° (WNW) 11:27:14 436.750
QB50P2 29 Jun 11:15:47 11:19:15 26° 65° (ENE) 11:22:46 145.880/145.840
DUCHIFAT 1 29 Jun 11:16:49 11:20:06 23° 64° (ENE) 11:23:22 145.980
CUBEBUG 2 29 Jun 11:17:49 11:22:07 40° 291° (WNW) 11:26:29 437.445
POLYITAN 1 29 Jun 11:18:23 11:21:52 26° 65° (ENE) 11:25:24 437.675
RS-15 29 Jun 11:20:05 11:28:56 27° 101° (E) 11:38:06 29.354- 29.394
CINEMA 3 29 Jun 11:28:02 11:30:20 14° 301° (WNW) 11:32:39 145.822/145.860
AAUSAT CUBESAT 2 29 Jun 11:29:35 11:32:59 24° 295° (WNW) 11:36:21 437.432
AIST 2 29 Jun 11:31:18 11:31:59 10° 17° (NNE) 11:32:40 435.215
DELFI C3 29 Jun 11:33:23 11:37:25 82° 103° (ESE) 11:41:24 145.870
ANTELSAT 29 Jun 11:33:57 11:38:06 45° 261° (W) 11:42:23 437.575/2403.000
PCSat 29 Jun 11:37:13 11:42:41 77° 54° (NE) 11:48:06 145.827
BEESAT 3 29 Jun 11:38:33 11:42:32 80° 51° (NE) 11:46:29 437.485
ZACube-1 29 Jun 11:40:16 11:44:39 48° 289° (WNW) 11:49:03 437.345
M-CUBED/EXP-1 PRIME 29 Jun 11:45:55 11:49:27 37° 296° (WNW) 11:53:15 437.505
Oscar 11 29 Jun 11:48:45 11:52:47 37° 292° (WNW) 11:56:46 145.826/435.025
FUNcube-1 29 Jun 11:57:32 12:01:40 35° 292° (WNW) 12:05:50 145.935
JAS-2 29 Jun 11:58:29 12:04:43 31° 60° (ENE) 12:10:26 435.910
ISS 29 Jun 12:02:24 12:05:35 47° 352° (N) 12:08:46 145.825
CUBEBUG 1 29 Jun 12:02:30 12:03:23 11° 87° (E) 12:04:17 437.445
UWE-3 29 Jun 12:03:57 12:07:29 22° 297° (WNW) 12:11:03 435.000/436.395/437.385
COMPASS 1 29 Jun 12:06:53 12:07:33 10° 304° (NW) 12:08:12 437.405
BUGSAT 1 29 Jun 12:08:33 12:12:12 34° 68° (ENE) 12:15:51 437.445
O/OREOS (USA 219) 29 Jun 12:11:19 12:15:17 30° 53° (NE) 12:19:14 437.305
VELOX 1 29 Jun 12:12:06 12:14:00 13° 88° (E) 12:15:53 145.980
BEESAT 2 29 Jun 12:18:13 12:22:14 75° 235° (SW) 12:26:12 435.950
YUBILEINY 29 Jun 12:22:01 12:28:44 26° 78° (ENE) 12:35:28 435.215
TIGRISAT 29 Jun 12:27:21 12:29:56 15° 271° (W) 12:32:35 435.000
Cosmos 2491 29 Jun 12:30:38 12:39:24 74° 78° (ENE) 12:48:06 435.465 / 435.565
NANOSAT C BR1 29 Jun 12:31:15 12:35:23 62° 259° (W) 12:39:33 145.865
UNISAT 6 29 Jun 12:33:29 12:35:31 13° 273° (W) 12:37:34 437.425
HO-68 29 Jun 12:33:54 12:37:54 16° 316° (NW) 12:41:54 435.675
QB50P1 29 Jun 12:34:51 12:38:57 54° 260° (W) 12:43:06 145.935-145.965
POPSAT HIP 1 29 Jun 12:38:12 12:42:16 50° 260° (W) 12:46:24 437.405
AUBIESAT-1 29 Jun 12:41:17 12:43:30 15° 304° (NW) 12:45:48 437.475
HUMSAT D 29 Jun 12:45:38 12:49:40 39° 291° (WNW) 12:53:40 437.325/437.525
UKube-1 29 Jun 12:47:12 12:50:09 18° 92° (E) 12:53:04 .
Oscar 19 29 Jun 12:47:21 12:51:09 21° 59° (ENE) 12:54:59 437.125/150
SPROUT 29 Jun 12:47:31 12:49:38 13° 89° (E) 12:51:43 437.525
ESTCUBE 1 29 Jun 12:51:00 12:55:23 47° 99° (E) 12:59:43 437.505/2401.250
QB50P2 29 Jun 12:51:05 12:54:56 35° 263° (W) 12:58:50 145.880/145.840
AISAT 29 Jun 12:51:29 12:55:27 32° 96° (E) 12:59:22 437.250
DUCHIFAT 1 29 Jun 12:51:39 12:55:35 40° 262° (W) 12:59:33 145.980
POLYITAN 1 29 Jun 12:53:43 12:57:34 34° 263° (W) 13:01:27 437.675
Cosmos 2504 29 Jun 12:58:34 13:01:51 13° 68° (ENE) 13:05:14 435.465 / 435.565
AIST 2 29 Jun 13:08:03 13:11:46 30° 40° (NE) 13:15:28 435.215
DX 1 29 Jun 13:08:10 13:12:08 34° 97° (E) 13:16:05 434.975-435.025
DELFI C3 29 Jun 13:10:09 13:11:41 12° 302° (WNW) 13:13:10 145.870
Gurwin Techsat 1B 29 Jun 13:12:26 13:15:53 18° 56° (NE) 13:19:20 435.225
BEESAT 3 29 Jun 13:17:55 13:19:38 13° 250° (WSW) 13:21:22 437.485
PCSat 29 Jun 13:21:43 13:25:29 19° 254° (WSW) 13:29:14 145.827
RS-15 29 Jun 13:28:07 13:39:39 86° 125° (SE) 13:51:52 29.354- 29.394
50 SAT 29 Jun 13:32:50 13:36:34 85° 285° (WNW) 13:40:14 437.505
CUBEBUG 1 29 Jun 13:35:58 13:40:20 88° 275° (W) 13:44:39 437.445
ISS 29 Jun 13:39:09 13:42:22 52° 12° (NNE) 13:45:35 145.825
JAS-2 29 Jun 13:41:50 13:49:23 68° 258° (WSW) 13:56:11 435.910
BUGSAT 1 29 Jun 13:44:24 13:47:39 23° 266° (W) 13:50:55 437.445
AO-7 29 Jun 13:46:14 13:51:33 19° 40° (NE) 13:56:51 29.400- 29.500
VELOX 1 29 Jun 13:46:37 13:51:02 78° 285° (WNW) 13:55:25 145.980
O/OREOS (USA 219) 29 Jun 13:50:38 13:54:45 36° 253° (WSW) 13:58:52 437.305
TISAT 1 29 Jun 14:03:19 14:06:35 21° 93° (E) 14:09:49 437.305
YUBILEINY 29 Jun 14:15:49 14:24:33 80° 280° (W) 14:33:24 435.215
SPROUT 29 Jun 14:21:47 14:26:04 70° 286° (WNW) 14:30:20 437.525
UKube-1 29 Jun 14:22:18 14:26:31 53° 289° (WNW) 14:30:42 .
Oscar 19 29 Jun 14:24:56 14:30:03 64° 258° (WSW) 14:35:11 437.125/150
AISAT 29 Jun 14:28:02 14:31:53 30° 294° (WNW) 14:35:43 437.250
ESTCUBE 1 29 Jun 14:28:25 14:31:54 22° 298° (WNW) 14:35:22 437.505/2401.250
Cosmos 2491 29 Jun 14:28:26 14:35:26 28° 280° (W) 14:42:26 435.465 / 435.565
DX 1 29 Jun 14:44:33 14:48:14 28° 295° (WNW) 14:51:56 434.975-435.025
Cosmos 2504 29 Jun 14:45:11 14:53:12 59° 91° (E) 15:01:45 435.465 / 435.565
AIST 2 29 Jun 14:46:26 14:50:22 41° 240° (WSW) 14:54:17 435.215
Gurwin Techsat 1B 29 Jun 14:49:51 14:55:11 84° 255° (WSW) 15:00:33 435.225
ITAMSAT 1 29 Jun 14:49:53 14:54:45 41° 66° (ENE) 14:59:39 435.822/435.867
SWISSCUBE 29 Jun 14:59:07 15:02:35 20° 91° (E) 15:06:03 437.505
CUBEBUG 1 29 Jun 15:14:15 15:15:56 12° 303° (WNW) 15:17:37 437.445
ISS 29 Jun 15:15:40 15:18:49 47° 212° (SSW) 15:21:59 145.825
BEESAT 29 Jun 15:23:46 15:27:59 29° 95° (E) 15:32:09 436.000
VELOX 1 29 Jun 15:25:28 15:26:45 11° 305° (NW) 15:28:01 145.980
ITUPSAT 1 29 Jun 15:25:31 15:29:45 30° 95° (E) 15:33:58 437.325
JAS-2 29 Jun 15:31:53 15:35:25 14° 276° (W) 15:38:50 435.910
AO-7 29 Jun 15:34:34 15:42:43 61° 62° (ENE) 15:50:55 29.400- 29.500
TISAT 1 29 Jun 15:38:26 15:42:25 41° 291° (WNW) 15:46:22 437.305
RS-15 29 Jun 15:42:29 15:53:37 45° 335° (NNW) 16:05:15 29.354- 29.394
SO-50 29 Jun 16:00:09 16:04:03 24° 114° (ESE) 16:07:57 436.795
YUBILEINY 29 Jun 16:16:43 16:22:59 21° 305° (NW) 16:29:20 435.215
HORYU 2 29 Jun 16:23:04 16:26:22 21° 61° (ENE) 16:29:41 437.375
ITAMSAT 1 29 Jun 16:29:43 16:34:20 31° 265° (W) 16:38:59 435.822/435.867
Gurwin Techsat 1B 29 Jun 16:33:36 16:35:56 13° 274° (W) 16:38:18 435.225
SWISSCUBE 29 Jun 16:36:02 16:40:46 57° 289° (WNW) 16:45:26 437.505
Cosmos 2504 29 Jun 16:39:30 16:47:04 37° 294° (WNW) 16:55:07 435.465 / 435.565
BEESAT 29 Jun 17:01:24 17:05:51 38° 293° (WNW) 17:10:15 436.000
ITUPSAT 1 29 Jun 17:03:13 17:07:40 38° 293° (WNW) 17:12:04 437.325
Cubesat XI-IV 29 Jun 17:07:29 17:09:53 13° 52° (NE) 17:12:16 437.490
NOAA 18 29 Jun 17:10:16 17:13:30 16° 53° (NE) 17:16:46 137.9125
BRITE-PL 29 Jun 17:11:31 17:13:52 14° 59° (ENE) 17:16:07 437.365/2234.400
AIST 1 29 Jun 17:28:19 17:32:13 34° 91° (E) 17:36:07
AO-7 29 Jun 17:28:19 17:35:52 37° 263° (W) 17:43:31 29.400- 29.500
MOZHAYETS 4 29 Jun 17:29:55 17:34:33 63° 102° (ESE) 17:39:08
KKS-1 29 Jun 17:31:20 17:35:46 68° 102° (ESE) 17:40:12 437.445
Cosmos 2499 29 Jun 17:34:30 17:35:07 10° 65° (ENE) 17:35:46 435.465 / 435.565
CUTE-I 29 Jun 17:39:21 17:43:25 23° 59° (ENE) 17:47:31 437.470
SO-50 29 Jun 17:39:22 17:44:13 60° 313° (NW) 17:49:02 436.795
GOMX 1 29 Jun 17:40:32 17:41:35 11° 57° (ENE) 17:42:37 467.674
CUSAT 1 29 Jun 17:54:06 17:55:10 11° 55° (NE) 17:56:10 437.405
HORYU 2 29 Jun 17:58:16 18:02:35 51° 260° (W) 18:06:58 437.375
RS-15 29 Jun 17:59:00 18:09:57 37° 8° (N) 18:21:08 29.354- 29.394
STARS 29 Jun 18:00:15 18:04:40 70° 102° (ESE) 18:09:05 437.465
NOAA 15 29 Jun 18:02:35 18:07:34 43° 66° (ENE) 18:12:32 137.62
GONETS M04 29 Jun 18:18:58 18:26:21 33° 82° (E) 18:33:44
DANDE 29 Jun 18:26:24 18:29:24 15° 53° (NE) 18:32:01 436.750
LilacSat-2 29 Jun 18:32:47 18:36:22 43° 71° (ENE) 18:40:01 437.200
DOVE 4 29 Jun 18:33:03 18:35:34 16° 61° (ENE) 18:38:04 437.250
Cubesat XI-IV 29 Jun 18:43:42 18:49:00 69° 72° (ENE) 18:54:22 437.490
BRITE-PL 29 Jun 18:46:51 18:51:49 90° 288° (WNW) 18:56:25 437.365/2234.400
NOAA 18 29 Jun 18:47:53 18:53:22 83° 73° (ENE) 18:58:55 137.9125
CUBESAT XI-V 29 Jun 19:00:46 19:05:24 67° 102° (ESE) 19:09:58 437.345
AIST 1 29 Jun 19:06:19 19:09:53 25° 290° (WNW) 19:13:29
MOZHAYETS 4 29 Jun 19:08:04 19:11:16 19° 300° (WNW) 19:14:27
KKS-1 29 Jun 19:09:03 19:11:51 17° 301° (WNW) 19:14:38 437.445
GOMX 1 29 Jun 19:14:31 19:19:02 80° 77° (ENE) 19:23:21 467.674
CUTE-I 29 Jun 19:17:43 19:23:02 65° 258° (WSW) 19:28:24 437.470
Cosmos 2499 29 Jun 19:17:56 19:25:55 50° 88° (E) 19:34:19 435.465 / 435.565
CINEMA 3 29 Jun 19:19:53 19:22:09 15° 59° (ENE) 19:24:27 145.822/145.860
SO-50 29 Jun 19:22:20 19:25:40 18° 335° (NNW) 19:28:59 436.795
HO-68 29 Jun 19:29:39 19:36:02 37° 59° (ENE) 19:42:28 435.675
CUSAT 1 29 Jun 19:34:17 19:38:03 53° 264° (W) 19:41:00 437.405
STARS 29 Jun 19:37:52 19:40:32 16° 301° (WNW) 19:43:12 437.465
NOAA 15 29 Jun 19:42:51 19:47:28 30° 265° (W) 19:52:07 137.62
COMPASS 1 29 Jun 19:49:17 19:51:31 14° 59° (ENE) 19:53:44 437.405
CANX-2 29 Jun 19:50:47 19:54:27 28° 66° (ENE) 19:58:10 2200.000
DANDE 29 Jun 20:08:07 20:13:19 71° 262° (W) 20:17:08 436.750
LilacSat-2 29 Jun 20:08:24 20:10:55 17° 269° (W) 20:13:28 437.200
DOVE 4 29 Jun 20:08:39 20:12:52 62° 258° (WSW) 20:17:01 437.250
CUTE 1.7 + AOD 2 29 Jun 20:10:10 20:14:08 38° 69° (ENE) 20:18:09 437.475
SEEDS 29 Jun 20:12:04 20:15:48 30° 67° (ENE) 20:19:32 437.485
RS-15 29 Jun 20:13:18 20:25:29 62° 40° (NE) 20:37:41 29.354- 29.394
GONETS M04 29 Jun 20:13:59 20:22:37 65° 284° (WNW) 20:31:17
AUBIESAT-1 29 Jun 20:22:51 20:24:50 15° 56° (NE) 20:26:52 437.475
Cubesat XI-IV 29 Jun 20:25:49 20:29:36 19° 270° (W) 20:33:24 437.490
BRITE-PL 29 Jun 20:29:06 20:30:52 12° 272° (W) 20:32:35 437.365/2234.400
NOAA 18 29 Jun 20:31:23 20:34:43 16° 271° (W) 20:38:05 137.9125
CUBESAT XI-V 29 Jun 20:39:14 20:42:17 18° 300° (WNW) 20:45:19 437.345
CUBEBUG 2 29 Jun 20:43:17 20:46:59 31° 66° (ENE) 20:50:47 437.445
AAUSAT CUBESAT 2 29 Jun 20:47:12 20:51:06 39° 69° (ENE) 20:55:02 437.432
STRAND 1 29 Jun 20:52:08 20:57:16 61° 102° (ESE) 21:02:20 437.568
CINEMA 3 29 Jun 20:54:40 20:58:47 68° 258° (WSW) 21:02:59 145.822/145.860
GOMX 1 29 Jun 20:56:02 20:57:40 12° 272° (W) 20:59:17 467.674
M-CUBED/EXP-1 PRIME 29 Jun 21:02:01 21:05:09 47° 65° (ENE) 21:08:21 437.505
ZACube-1 29 Jun 21:04:01 21:07:30 25° 64° (ENE) 21:11:03 437.345
SO-50 29 Jun 21:06:43 21:08:05 11° 359° (N) 21:09:28 436.795
Oscar 11 29 Jun 21:10:56 21:14:45 31° 67° (ENE) 21:18:37 145.826/435.025
Cosmos 2499 29 Jun 21:11:08 21:19:10 45° 291° (WNW) 21:27:37 435.465 / 435.565
HO-68 29 Jun 21:16:31 21:23:31 56° 259° (WSW) 21:30:35 435.675
FUNcube-1 29 Jun 21:20:26 21:24:14 33° 67° (ENE) 21:28:08 145.935
COMPASS 1 29 Jun 21:22:18 21:26:31 74° 258° (WSW) 21:30:46 437.405
CANX-2 29 Jun 21:26:22 21:30:14 33° 264° (W) 21:34:10 2200.000
UWE-3 29 Jun 21:27:17 21:31:26 59° 72° (ENE) 21:35:43 435.000/436.395/437.385
PRISM 29 Jun 21:28:49 21:32:04 22° 94° (E) 21:35:15 437.425
AO-85 29 Jun 21:30:52 21:35:10 25° 113° (ESE) 21:39:22 145.980
CUTE 1.7 + AOD 2 29 Jun 21:46:37 21:50:07 24° 267° (W) 21:53:38 437.475
SEEDS 29 Jun 21:47:41 21:51:27 30° 265° (W) 21:55:16 437.485
AUBIESAT-1 29 Jun 21:55:54 21:59:03 43° 255° (WSW) 22:02:18 437.475
HUMSAT D 29 Jun 22:05:05 22:08:36 26° 65° (ENE) 22:12:10 437.325/437.525
GONETS M04 29 Jun 22:16:20 22:21:31 17° 309° (NW) 22:26:44
CUBEBUG 2 29 Jun 22:19:58 22:23:37 29° 266° (W) 22:27:23 437.445
ESTCUBE 1 29 Jun 22:21:37 22:22:14 10° 54° (NE) 22:22:50 437.505/2401.250
DELFI C3 29 Jun 22:22:20 22:26:22 77° 75° (ENE) 22:30:25 145.870
AAUSAT CUBESAT 2 29 Jun 22:23:24 22:26:44 22° 267° (W) 22:30:05 437.432
YUBILEINY 29 Jun 22:25:59 22:31:19 17° 50° (NE) 22:36:38 435.215
RS-15 29 Jun 22:26:16 22:38:04 56° 246° (WSW) 22:49:47 29.354- 29.394
STRAND 1 29 Jun 22:32:05 22:36:02 23° 300° (WNW) 22:39:58 437.568
TIGRISAT 29 Jun 22:38:39 22:39:51 11° 86° (E) 22:41:02 435.000
M-CUBED/EXP-1 PRIME 29 Jun 22:38:49 22:40:04 12° 264° (W) 22:41:19 437.505
ZACube-1 29 Jun 22:39:41 22:43:37 37° 263° (W) 22:47:41 437.345
UNISAT 6 29 Jun 22:43:24 22:45:36 13° 87° (E) 22:47:48 437.425
Oscar 11 29 Jun 22:47:02 22:50:53 30° 265° (W) 22:54:45 145.826/435.025
SO-50 29 Jun 22:47:21 22:50:32 17° 24° (NNE) 22:53:39 436.795
FUNcube-1 29 Jun 22:56:54 23:00:32 27° 266° (W) 23:04:15 145.935
CUBEBUG 1 29 Jun 23:01:06 23:03:42 16° 59° (ENE) 23:06:18 437.445
PRISM 29 Jun 23:03:43 23:07:30 37° 292° (WNW) 23:11:16 437.425
UWE-3 29 Jun 23:05:50 23:08:20 15° 271° (W) 23:10:54 435.000/436.395/437.385
AO-85 29 Jun 23:09:58 23:15:20 66° 311° (NW) 23:20:29 145.980
Cosmos 2499 29 Jun 23:12:04 23:15:12 12° 317° (NW) 23:18:22 435.465 / 435.565
VELOX 1 29 Jun 23:12:24 23:15:30 19° 61° (ENE) 23:18:37 145.980
ANTELSAT 29 Jun 23:21:43 23:25:49 30° 95° (E) 23:29:55 437.575/2403.000
HUMSAT D 29 Jun 23:40:17 23:44:06 34° 264° (W) 23:48:01 437.325/437.525
Cosmos 2491 29 Jun 23:44:11 23:49:13 17° 73° (ENE) 23:54:14 435.465 / 435.565
SPROUT 29 Jun 23:44:28 23:47:15 17° 61° (ENE) 23:50:04 437.525
UKube-1 29 Jun 23:44:58 23:48:28 25° 64° (ENE) 23:51:59 .
AISAT 29 Jun 23:52:05 23:56:16 44° 69° (ENE) 00:00:28 437.250
ESTCUBE 1 29 Jun 23:53:41 23:58:11 67° 73° (ENE) 00:02:42 437.505/2401.250
DELFI C3 30 Jun 00:00:35 00:01:45 11° 273° (W) 00:02:55 145.870
DX 1 30 Jun 00:06:52 00:11:02 47° 70° (ENE) 00:15:13 434.975-435.025
TIGRISAT 30 Jun 00:12:33 00:17:14 84° 104° (ESE) 00:21:56 435.000
NANOSAT C BR1 30 Jun 00:12:54 00:15:39 17° 91° (E) 00:18:22 145.865
50 SAT 30 Jun 00:13:43 00:17:26 74° 74° (ENE) 00:21:11 437.505
QB50P1 30 Jun 00:16:33 00:19:36 19° 92° (E) 00:22:38 145.935-145.965
UNISAT 6 30 Jun 00:18:13 00:22:53 82° 286° (WNW) 00:27:36 437.425
POPSAT HIP 1 30 Jun 00:19:49 00:23:00 20° 92° (E) 00:26:10 437.405
YUBILEINY 30 Jun 00:21:27 00:30:15 64° 76° (ENE) 00:39:01 435.215
SO-50 30 Jun 00:27:19 00:32:01 59° 47° (NE) 00:36:32 436.795
QB50P2 30 Jun 00:32:09 00:35:52 28° 95° (E) 00:39:33 145.880/145.840
DUCHIFAT 1 30 Jun 00:32:12 00:35:41 24° 94° (E) 00:39:08 145.980
Cosmos 2504 30 Jun 00:33:25 00:41:03 30° 62° (ENE) 00:48:26 435.465 / 435.565
POLYITAN 1 30 Jun 00:34:46 00:38:30 29° 95° (E) 00:42:13 437.675
CUBEBUG 1 30 Jun 00:35:10 00:39:30 69° 258° (WSW) 00:43:50 437.445
RS-15 30 Jun 00:42:46 00:47:31 13° 269° (W) 00:52:15 29.354- 29.394
VELOX 1 30 Jun 00:47:16 00:51:36 56° 259° (W) 00:55:57 145.980
JAS-2 30 Jun 00:50:47 00:52:51 12° 83° (E) 00:54:52 435.910
AO-85 30 Jun 00:52:52 00:56:43 20° 332° (NNW) 01:00:26 145.980
ANTELSAT 30 Jun 00:58:18 01:02:34 36° 292° (WNW) 01:06:51 437.575/2403.000
TISAT 1 30 Jun 00:58:24 01:01:51 26° 65° (ENE) 01:05:19 437.305
SPROUT 30 Jun 01:18:37 01:22:48 58° 259° (W) 01:27:01 437.525
UKube-1 30 Jun 01:20:18 01:24:20 39° 262° (W) 01:28:25 .
BUGSAT 1 30 Jun 01:21:32 01:25:20 35° 97° (E) 01:29:09 437.445
AISAT 30 Jun 01:29:33 01:32:58 22° 267° (W) 01:36:22 437.250
ESTCUBE 1 30 Jun 01:32:47 01:35:28 15° 271° (W) 01:38:08 437.505/2401.250
Cosmos 2491 30 Jun 01:35:45 01:44:29 74° 95° (E) 01:53:11 435.465 / 435.565
DX 1 30 Jun 01:44:16 01:47:28 20° 268° (W) 01:50:41 434.975-435.025
NANOSAT C BR1 30 Jun 01:47:34 01:51:44 55° 289° (WNW) 01:55:53 145.865
TIGRISAT 30 Jun 01:50:44 01:53:18 15° 302° (WNW) 01:55:54 435.000
QB50P1 30 Jun 01:51:31 01:55:38 48° 290° (WNW) 01:59:45 145.935-145.965
POPSAT HIP 1 30 Jun 01:54:56 01:59:01 45° 290° (WNW) 02:03:05 437.405
UNISAT 6 30 Jun 01:56:50 01:58:53 13° 304° (WNW) 02:00:57 437.425
DUCHIFAT 1 30 Jun 02:07:34 02:11:29 37° 292° (WNW) 02:15:24 145.980
QB50P2 30 Jun 02:07:52 02:11:41 32° 293° (WNW) 02:15:31 145.880/145.840
SO-50 30 Jun 02:08:30 02:12:06 22° 247° (WSW) 02:15:37 436.795
SWISSCUBE 30 Jun 02:08:40 02:12:59 34° 65° (ENE) 02:17:19 437.505
POLYITAN 1 30 Jun 02:10:30 02:14:19 32° 293° (WNW) 02:18:07 437.675
YUBILEINY 30 Jun 02:18:56 02:26:31 34° 278° (W) 02:34:05 435.215
PCSat 30 Jun 02:22:51 02:27:36 32° 112° (ESE) 02:32:24 145.827
Cosmos 2504 30 Jun 02:26:28 02:35:23 76° 265° (W) 02:43:55 435.465 / 435.565
O/OREOS (USA 219) 30 Jun 02:28:52 02:31:34 16° 100° (E) 02:34:14 437.305
Oscar 19 30 Jun 02:32:54 02:37:33 34° 96° (E) 02:42:11 437.125/150
JAS-2 30 Jun 02:33:21 02:39:06 83° 103° (ESE) 02:44:23 435.910
BEESAT 30 Jun 02:33:23 02:38:00 51° 69° (ENE) 02:42:39 436.000
TISAT 1 30 Jun 02:33:35 02:37:23 34° 263° (W) 02:41:13 437.305
ITUPSAT 1 30 Jun 02:35:28 02:40:07 52° 70° (ENE) 02:44:49 437.325
AO-85 30 Jun 02:37:30 02:39:07 11° 356° (N) 02:40:43 145.980
BUGSAT 1 30 Jun 02:57:14 03:00:35 25° 295° (WNW) 03:03:56 437.445
KKS-1 30 Jun 02:58:54 03:01:07 14° 57° (ENE) 03:03:20 437.445
MOZHAYETS 4 30 Jun 03:00:53 03:03:08 14° 57° (ENE) 03:05:25
ITAMSAT 1 30 Jun 03:02:11 03:02:45 10° 84° (E) 03:03:19 435.822/435.867
Gurwin Techsat 1B 30 Jun 03:02:42 03:07:20 29° 94° (E) 03:11:56 435.225
BEESAT 3 30 Jun 03:09:41 03:13:22 41° 120° (ESE) 03:17:06 437.485
STARS 30 Jun 03:26:40 03:28:47 13° 57° (ENE) 03:30:55 437.465
AIST 1 30 Jun 03:32:23 03:34:36 14° 64° (ENE) 03:36:48
AO-7 30 Jun 03:34:33 03:38:16 13° 83° (E) 03:41:58 29.400- 29.500
Cosmos 2491 30 Jun 03:34:47 03:42:12 30° 298° (WNW) 03:49:39 435.465 / 435.565
SWISSCUBE 30 Jun 03:46:26 03:50:46 33° 264° (W) 03:55:08 437.505
BEESAT 2 30 Jun 03:50:35 03:54:29 60° 124° (SE) 03:58:26 435.950
PCSat 30 Jun 04:05:35 04:10:50 49° 312° (NW) 04:16:07 145.827
O/OREOS (USA 219) 30 Jun 04:05:58 04:10:26 65° 298° (WNW) 04:14:54 437.305
Oscar 19 30 Jun 04:12:13 04:16:54 37° 295° (WNW) 04:21:35 437.125/150
BEESAT 30 Jun 04:12:22 04:16:05 22° 268° (W) 04:19:48 436.000
ITUPSAT 1 30 Jun 04:14:34 04:18:15 22° 268° (W) 04:21:58 437.325
AO-85 30 Jun 04:18:41 04:21:39 16° 21° (NNE) 04:24:29 145.980
JAS-2 30 Jun 04:19:41 04:23:24 18° 307° (NW) 04:26:56 435.910
Cosmos 2504 30 Jun 04:21:45 04:27:13 18° 287° (WNW) 04:32:34 435.465 / 435.565
GONETS M04 30 Jun 04:23:36 04:29:49 21° 55° (NE) 04:36:02
KKS-1 30 Jun 04:32:38 04:37:03 85° 253° (WSW) 04:41:31 437.445
CUBESAT XI-V 30 Jun 04:32:38 04:35:12 15° 58° (ENE) 04:37:45 437.345
MOZHAYETS 4 30 Jun 04:34:58 04:39:36 89° 84° (E) 04:44:18
ITAMSAT 1 30 Jun 04:37:55 04:43:11 71° 103° (ESE) 04:48:23 435.822/435.867
Gurwin Techsat 1B 30 Jun 04:42:23 04:47:28 45° 293° (WNW) 04:52:29 435.225
BEESAT 3 30 Jun 04:47:44 04:51:10 28° 320° (NW) 04:54:39 437.485
AIST 2 30 Jun 04:48:22 04:50:56 16° 112° (ESE) 04:53:31 435.215
STARS 30 Jun 05:00:10 05:04:31 84° 255° (WSW) 05:08:56 437.465
Cosmos 2499 30 Jun 05:04:59 05:11:56 25° 58° (ENE) 05:18:37 435.465 / 435.565
AIST 1 30 Jun 05:08:28 05:12:44 69° 263° (W) 05:16:56
AO-7 30 Jun 05:24:26 05:32:47 63° 104° (ESE) 05:41:03 29.400- 29.500
BEESAT 2 30 Jun 05:29:29 05:32:39 22° 324° (NW) 05:35:53 435.950
HORYU 2 30 Jun 05:45:52 05:49:28 23° 93° (E) 05:53:02 437.375
O/OREOS (USA 219) 30 Jun 05:48:58 05:50:46 12° 320° (NW) 05:52:34 437.305
PCSat 30 Jun 05:52:19 05:55:35 16° 335° (NNW) 05:58:51 145.827
AO-85 30 Jun 05:58:41 06:03:17 50° 45° (NE) 06:07:28 145.980
